STARLINK-34801, 66076

Orbit data source: Space-Track

STARLINK-34801, 66076 is a payload satellite owned by SpaceX/Seattle (US) in LEO that was launched on Sun, 19 Oct 2025 UTC via an FALCON 9 launch vehicle from the Air Force Eastern Test Range (AFETR). Payload-class satellites include a variety of spacecraft equipped with specific instruments for various scientific and technological missions. These include communications satellites like Starlink; space stations such as the ISS; scientific satellites like the Hubble; Earth observation satellites from companies like Planet Labs, Umbra, and HawkEye 360; GPS; miniature CubeSats for education and research; and military/defense satellites.

Loading next visibility...
Identifier
66076, 2025-235U
Orbit
LEO
Country
Flag of USUS
Related business
Manufacturer
SpaceX/Seattle
Mission
Operational spacecraft
Bus & Motor
STARLINK V2MO, Unknown motor
Mass
575 kg wet, ~530 kg dry
Launch date (UTC)
2025-10-19 (2 weeks ago)
Launch vehicle
FALCON 9
Launch site
Air Force Eastern Test Range (AFETR)
Object type
Payload
Rocket body
Debris
Shape & HBR
Unknown
Radar Cross Section
RCS unknown

Expand to show TLE details & history
Last TLE update: 23 hours ago

TLE from 23 hours ago
0 STARLINK-34801
1 66076U 25235U   25305.58335648 -.01612596  00000-0 -10557-1 0  9990
2 66076  53.1504 124.7426 0000821  77.0890 354.3101 15.78257772  3262
Epoch: 2025-11-01T14:00Z
TLE epoch observation values (Epoch: 2025-11-01T14:00:01.999Z)
Latitude
49.47527°
Longitude
-65.70989°
Altitude
340.508 km
Speed
7.711 km/s
True Right ascension
12h 21m 38s
True Declination
49° 17' 41"
Sunlit
Object was in daylight at epoch
Visualization orbit readout
Latitude
Unknown
Longitude
Unknown
Altitude
Unknown
Speed
Unknown
Apparent Right ascension
Unknown
Apparent Declination
Unknown
Sunlit
N/A
Visualization observer readout
Local Sidereal Time
08:49:37
Azimuth
Unknown
Elevation
Unknown
Doppler factor
Unknown
Orbital elements
Apogee altitude
336.191 km
Perigee altitude
335.089 km
Semi-major axis
6,713.777 km
Eccentricity
0.00008
Inclination
53.1504°
RAAN
124.7426°
Arg. of periapsis
77.089°
True anomaly
354.30917°
Mean anomaly
354.3101°
Eccentric anomaly
354.30963°
Mean motion
3.94542 °/min
Orbital period
91.25 mins
BSTAR
-0.010557
Loading maneuver chart data...
Computing Atmospheric mass density...
Loading historical data...
Loading historical data...
Loading historical data...
Loading historical data...
Loading historical data...
Loading historical data...
Loading historical data...

Documentation

Showing up to 5 results
|